EW2984 Weather Reports


time (UTC)temp
F
wind
direction
speed
knots
gust
knots
rain 1hr
in
rain 24hr
in
rain mn
in
humidity
%
barometer
mb
20260504231551 70 195 0.0 3.5 0.00 0.00 0.00 43 1008.9
20260504230055 71 153 0.0 2.6 0.00 0.00 0.00 44 1008.9
20260504224551 71 208 0.9 2.6 0.00 0.00 0.00 43 1009.0
20260504223047 71 151 0.0 1.7 0.00 0.00 0.00 43 1009.0
20260504221546 72 208 0.0 4.3 0.00 0.00 0.00 43 1009.1
20260504220045 72 229 0.9 3.5 0.00 0.00 0.00 42 1009.2
20260504214553 72 323 0.9 4.3 0.00 0.00 0.00 41 1009.2
20260504213043 73 204 0.9 4.3 0.00 0.00 0.00 41 1009.2
20260504211542 73 81 0.0 2.6 0.00 0.00 0.00 40 1009.3
20260504210045 74 244 0.0 4.3 0.00 0.00 0.00 40 1009.2
20260504204547 75 231 0.0 6.1 0.00 0.00 0.00 38 1009.2
20260504203053 74 121 1.7 4.3 0.00 0.00 0.00 38 1009.3
20260504201538 75 231 0.9 4.3 0.00 0.00 0.00 40 1009.6
20260504200035 75 215 1.7 7.0 0.00 0.00 0.00 39 1010.0
20260504194535 74 150 0.9 7.0 0.00 0.00 0.00 37 1010.0
20260504193029 74 212 0.0 5.2 0.00 0.00 0.00 40 1010.3
20260504191527 74 225 0.0 4.3 0.00 0.00 0.00 40 1010.6
20260504190023 73 224 0.9 4.3 0.00 0.00 0.00 41 1010.8
20260504184520 72 202 0.9 10.4 0.00 0.00 0.00 41 1011.1
20260504183016 72 210 0.9 6.1 0.00 0.00 0.00 41 1011.4
20260504181514 71 274 0.9 5.2 0.00 0.00 0.00 41 1011.5
20260504180011 70 276 0.0 5.2 0.00 0.00 0.00 41 1011.6
20260504174508 70 290 0.0 3.5 0.00 0.00 0.00 42 1011.8
20260504173008 69 257 0.0 7.0 0.00 0.00 0.00 46 1011.8
20260504171501 68 259 1.7 4.3 0.00 0.00 0.00 44 1012.1
20260504081528 45 232 0.0 0.0 0.00 0.00 0.00 62 1015.1
20260504050009 47 218 0.0 0.9 0.00 0.00 0.00 59 1015.4
20260504044514 48 221 0.0 0.9 0.00 0.00 0.00 57 1015.4
20260504043007 48 215 0.0 0.9 0.00 0.00 0.00 58 1015.4
20260504041505 47 226 0.0 0.9 0.00 0.00 0.00 59 1015.5
20260504040003 48 219 0.0 0.9 0.00 0.00 0.00 59 1015.3
20260504034503 47 208 0.0 0.9 0.00 0.00 0.00 60 1015.2
20260504033002 48 218 0.0 0.9 0.00 0.00 0.00 60 1015.2
20260504031501 48 219 0.0 0.9 0.00 0.00 0.00 58 1015.0
20260504030000 48 219 0.0 0.9 0.00 0.00 0.00 57 1015.0
20260504024601 48 215 0.0 0.9 0.00 0.00 0.00 58 1015.0
20260504023059 48 217 0.0 0.9 0.00 0.00 0.00 57 1014.9
20260504021558 49 217 0.0 0.0 0.00 0.00 0.00 56 1014.9
20260504020059 50 217 0.0 0.9 0.00 0.00 0.00 54 1015.0
20260504014603 49 217 0.0 0.9 0.00 0.00 0.00 54 1014.9
20260504013111 50 217 0.0 0.9 0.00 0.00 0.00 54 1014.7
20260504011559 50 205 0.0 0.0 0.00 0.00 0.00 52 1014.6
20260504010113 50 221 0.0 0.9 0.00 0.00 0.00 52 1014.5
20260504004556 51 221 0.0 0.0 0.00 0.00 0.00 52 1014.5
20260504003055 52 221 0.0 0.0 0.00 0.00 0.00 50 1014.3
20260504001602 54 221 0.0 0.9 0.00 0.00 0.00 47 1014.2
20260504000058 55 222 0.0 0.9 0.00 0.00 0.00 45 1014.0
20260503234554 56 194 0.0 0.0 0.00 0.00 0.00 43 1013.9
20260503233101 56 186 0.0 1.7 0.00 0.00 0.00 42 1013.6